Regional Weather Roundup
Issued by NWS Northern Indiana

Home | Current Version | Previous Version | Graphics & Text | Print | Product List | Glossary On
Versions: 1 2 3 4 5 6 7 8 9 10 11 12 13 14 15 16 17 18 19 20 21 22 23 24 25 26 27 28 29 30 31 32 33 34 35 36 37 38 39 40 41 42 43 44 45 46 47 48 49 50
000
ASUS43 KIWX 091500
RWRIWX

KIWX WEATHER ROUNDUP
NATIONAL WEATHER SERVICE NORTHERN INDIANA
1000 AM EST FRI DEC 09 2016

NOTE: "FAIR" INDICATES FEW OR NO CLOUDS BELOW 12,000 FEET WITH NO
SIGNIFICANT WEATHER AND/OR OBSTRUCTIONS TO VISIBILITY.

* THESE STATIONS ARE NOT UNDER NWS QUALITY CONTROL. THEY ALSO MAY NOT
  REPORT WEATHER SUCH AS PRECIPITATION OR FOG.

INZ001>027-091600-
NORTHERN INDIANA

CITY           SKY/WX    TMP DP  RH WIND       PRES   REMARKS
GARY*          CLOUDY    27  19  74 W13       30.53R WCI  16
SOUTH BEND     LGT SNOW  24  22  91 W12       30.46R FOG     WCI  13
GOSHEN         MOSUNNY   25  18  74 W13       30.45R WCI  14
ANGOLA*        CLOUDY    25  21  86 W12       30.41R WCI  14
FORT WAYNE     FLURRIES  23  18  81 W14       30.47R WCI  11
PERU/GRISSOM   CLOUDY    23  19  85 W14       30.49R WCI  10

$$
INZ028>050-091600-
CENTRAL INDIANA

CITY           SKY/WX    TMP DP  RH WIND       PRES   REMARKS
LAFAYETTE      FLURRIES  23  18  81 W13       30.55R WCI  11
KOKOMO*        CLOUDY    22  19  89 W16       30.51R WCI   8
MUNCIE*        CLOUDY    22  17  81 W12       30.50R WCI  10
INDIANAPOLIS   FLURRIES  22  16  78 W12       30.54R WCI  10

$$
MIZ043>046-050>051-056>058-064>065-071>073-077>080-091600-
SOUTHWEST LOWER MICHIGAN

CITY           SKY/WX    TMP DP  RH WIND       PRES   REMARKS
BATTLE CREEK   LGT SNOW  27  25  92 W7        30.40R FOG     WCI  19
BENTON HARBOR  LGT SNOW  29  18  63 W15       30.45R WCI  18
COLDWATER*     LGT SNOW  24  23  93 W8        30.40R WCI  16
HILLSDALE*     LGT SNOW  23  21  93 W7        30.38R WCI  15
HOLLAND        PTSUNNY   29  18  63 W10       30.42R WCI  20
GRAND RAPIDS   FLURRIES  27  17  66 NW9       30.40R WCI  18
KALAMAZOO      LGT SNOW  27  22  81 NW8       30.41R WCI  19
STURGIS*       CLOUDY    24  21  89 W8        30.41R FOG     WCI  15
THREE RIVERS*  LGT SNOW  26  23  90 SW3       30.43R

$$
OHZ001>008-015>018-024>025-091600-
NORTHWEST OHIO

CITY           SKY/WX    TMP DP  RH WIND       PRES   REMARKS
DEFIANCE       LGT SNOW  26  20  77 W6        30.44R WCI  19
FINDLAY        LGT SNOW  24  18  77 W20G26    30.43R WCI  10
TOLEDO EXPRESS LGT SNOW  25  23  92 W12       30.41R FOG     WCI  14
TOLEDO METCALF CLOUDY    26  22  84 W13       30.43R WCI  15
LIMA           LGT SNOW  22  19  89 W14       30.44R FOG     WCI   9

$$
AND FOR LAKE MICHIGAN COASTAL AND OPEN LAKE BUOY OBSERVATIONS

STATION/POSITION TEMP    WIND        PRES    VSBY  WAVE
                 AIR SEA DIR/SP/G                  HT/PER
                 (F)     (DEG/KT/KT) (MB)    (MI)  (FT/S)
CALUMET HARBOR    24     270/  5/  8 1032.5R
BURNS HARBOR      27     270/ 16/ 20 1032.8R
SAINT JOSEPH      31     290/ 17/ 23 1031.8R

$$
&&



USA.gov is the U.S. government's official web portal to all federal, state and local government web resources and services.